Погода в Санта Марии

Португалия     36°58′22″N   25°09′56″W
темп.,
°C
ветер,
м/с
пор.,
м/с
влажн.,
%
обл.,
%
осадки,
мм/ч
давл.,
гПа
погр.,
м
31 июля, сб
сб3100:00+22св78796 0.0 1030686
03:00+21св678066 0.0 1029743
06:00+22ссв567995 0.0 1028752
09:00+22ссв458180 0.1 1030526
12:00+22с338088 0.2 1030422
15:00+22сз337826 0.1 1030432
18:00+23с34785 0.1 1029524
21:00+23св43821 0.0 1030435
1 августа, вс
вс100:00+22с448396 0.1 1030521
03:00+22с338289 0.1 1029471
06:00+22ссз457819 0.1 1028502
09:00+22ссз458117 0.0 1029496
12:00+23ссз56812 0.0 1029515
15:00+23ссз67825 0.0 1028603
18:00+23ссз88865 0.0 1027482
21:00+23ссз77865 0.0 1027411
2 августа, пн
пн200:00+23ссз68853 0.0 1028542
03:00+23ссз788874 0.0 1026492
06:00+23ссз799166 0.5 1025447
09:00+23с698930 0.4 1025556
12:00+23ссв698855 0.8 1026559
15:00+23св788710 0.0 1025558
18:00+23св67848 0.0 1025553
21:00+23св688453 0.0 1025628
3 августа, вт
вт300:00+22св77818 0.1 1026694
03:00+22св66772 0.0 1026696
06:00+22св77730 0.0 1026705
09:00+22св67720 0.0 1026692
12:00+22св56710 0.0 1027677
15:00+22св56730 0.0 1027633
18:00+22св34740 0.0 1027477
21:00+22св46790 0.0 1028507
4 августа, ср
ср400:00+23св468414 0.0 1028503
03:00+22св348734 0.0 1027407
06:00+23с348875 0.1 1027347
09:00+22ссз44870 0.1 1028323
12:00+23с22845 0.1 1028273
15:00+23зсз11804 0.0 1028300
18:00+24сз33745 0.0 1028405
21:00+24сз45815 0.0 1028357